RYR65SH EDLV-LEAL

Flight info

Callsign RYR65SH
Flight time N/A
Altitude 37000
Route VEBAK4S VEBAK Z283 MODRU Z717 MAS UM617 CIV N872 MEDIL DCT KOVIN DCT DUCRA UM728 RESMI UN857 DISAK DCT DIRMO DCT GUERE DCT EVPOK DCT AGN DCT ANETO DCT POSSY DCT XIMPE DCT RIMES N860 VLC
Aircraft B38M/M-SDE1FGHILORVWXY/HB1

Departure

Time 2026-05-09 15:29
Airport Weeze (Niederrhein) Airport (EDLV)

Arrival

Time N/A
Airport Alicante-Elche Miguel Hernández Airport (LEAL)
Time Latitude Longitude Altitude Speed Heading
2026-05-09 14:57 51.59958 6.14874 115 ft 0 kts 92°
2026-05-09 15:21 51.59958 6.14841 115 ft 4 kts 78°
2026-05-09 15:22 51.59946 6.14806 112 ft 4 kts 33°
2026-05-09 15:22 51.59926 6.14796 114 ft 1 kts
2026-05-09 15:22 51.59922 6.14796 115 ft 0 kts
2026-05-09 15:25 51.59927 6.14796 116 ft 2 kts
2026-05-09 15:26 51.60006 6.14801 113 ft 9 kts
2026-05-09 15:26 51.60043 6.14869 116 ft 9 kts 84°
2026-05-09 15:26 51.60042 6.14979 116 ft 11 kts 92°
2026-05-09 15:26 51.60038 6.15120 117 ft 14 kts 92°
2026-05-09 15:27 51.60035 6.15279 117 ft 14 kts 92°
2026-05-09 15:27 51.60031 6.15453 121 ft 17 kts 92°
2026-05-09 15:27 51.60026 6.15673 120 ft 21 kts 92°
2026-05-09 15:27 51.60022 6.15860 120 ft 13 kts 91°
2026-05-09 15:28 51.60086 6.15949 118 ft 15 kts
2026-05-09 15:28 51.60184 6.15950 118 ft 11 kts 338°
2026-05-09 15:28 51.60213 6.15785 120 ft 37 kts 273°
2026-05-09 15:28 51.60233 6.14909 115 ft 118 kts 272°
2026-05-09 15:29 51.60267 6.13229 223 ft 172 kts 273°
2026-05-09 15:29 51.60297 6.11261 1048 ft 178 kts 273°
2026-05-09 15:29 51.60560 6.09181 1646 ft 207 kts 296°
2026-05-09 15:29 51.61500 6.07286 2366 ft 225 kts 323°
2026-05-09 15:30 51.62876 6.06205 3580 ft 223 kts 349°
2026-05-09 15:30 51.64440 6.05844 4626 ft 233 kts
2026-05-09 15:30 51.65964 6.06704 5634 ft 237 kts 39°
2026-05-09 15:30 51.66909 6.08863 6680 ft 241 kts 73°
2026-05-09 15:31 51.67007 6.11562 7610 ft 244 kts 105°
2026-05-09 15:31 51.66266 6.13986 8609 ft 245 kts 133°
2026-05-09 15:31 51.64960 6.15765 9544 ft 248 kts 143°
2026-05-09 15:31 51.63474 6.17300 10180 ft 261 kts 162°
2026-05-09 15:32 51.61648 6.17844 10641 ft 276 kts 180°
2026-05-09 15:32 51.59681 6.18317 11053 ft 299 kts 161°
2026-05-09 15:32 51.57832 6.20093 11504 ft 322 kts 144°
2026-05-09 15:32 51.56013 6.22350 11934 ft 338 kts 145°
2026-05-09 15:33 51.54109 6.24679 12515 ft 347 kts 145°
2026-05-09 15:33 51.52181 6.27034 13308 ft 350 kts 145°
2026-05-09 15:33 51.50234 6.29408 14007 ft 353 kts 146°
2026-05-09 15:33 51.48245 6.31745 14629 ft 355 kts 152°
2026-05-09 15:34 51.45961 6.33121 15236 ft 351 kts 173°
2026-05-09 15:34 51.43537 6.33078 15783 ft 350 kts 193°
2026-05-09 15:34 51.41210 6.31933 16328 ft 352 kts 200°
2026-05-09 15:34 51.38885 6.30637 16843 ft 355 kts 201°
2026-05-09 15:35 51.36549 6.29304 17353 ft 358 kts 201°
2026-05-09 15:35 51.34195 6.27941 17870 ft 361 kts 201°
2026-05-09 15:35 51.32524 6.26965 18230 ft 362 kts 201°
2026-05-09 15:35 51.30266 6.25643 18642 ft 365 kts 201°
2026-05-09 15:36 51.21093 6.21376 20099 ft 372 kts 193°
2026-05-09 15:36 51.10963 6.17293 21520 ft 380 kts 201°
2026-05-09 15:36 51.01742 6.08929 22813 ft 386 kts 220°
2026-05-09 15:36 50.97779 5.93493 23877 ft 405 kts 274°
2026-05-09 15:37 51.01912 5.78181 24655 ft 416 kts 290°
2026-05-09 15:37 51.02682 5.73802 24846 ft 411 kts 272°
2026-05-09 15:37 51.02522 5.68979 25033 ft 406 kts 253°
2026-05-09 15:37 50.99706 5.61529 25275 ft 395 kts 219°
2026-05-09 15:38 50.95299 5.56214 25824 ft 402 kts 222°
2026-05-09 15:38 50.91473 5.49667 26657 ft 406 kts 226°
2026-05-09 15:38 50.88042 5.42484 27371 ft 415 kts 241°
2026-05-09 15:38 50.86489 5.33600 28145 ft 423 kts 252°
2026-05-09 15:39 50.84115 5.25154 28753 ft 423 kts 241°
2026-05-09 15:39 50.82649 5.16031 29479 ft 434 kts 260°
2026-05-09 15:39 50.81660 5.06593 30006 ft 437 kts 253°
2026-05-09 15:39 50.80546 5.01044 30315 ft 435 kts 242°
2026-05-09 15:40 50.79768 4.98116 30485 ft 438 kts 246°
2026-05-09 15:40 50.78132 4.90522 30919 ft 442 kts 249°
2026-05-09 15:40 50.74671 4.71769 32053 ft 444 kts 248°
2026-05-09 15:40 50.70954 4.53289 33407 ft 439 kts 248°
2026-05-09 15:41 50.67543 4.34773 34407 ft 440 kts 251°
2026-05-09 15:41 50.61897 4.18209 35314 ft 428 kts 230°
2026-05-09 15:41 50.57894 4.01046 35973 ft 447 kts 275°
2026-05-09 15:41 50.58522 3.96231 36166 ft 448 kts 276°
2026-05-09 15:42 50.58700 3.91381 36326 ft 442 kts 259°
2026-05-09 15:42 50.57898 3.86790 36443 ft 434 kts 239°
2026-05-09 15:42 50.56067 3.83089 36583 ft 429 kts 218°
2026-05-09 15:42 50.53520 3.80691 36787 ft 428 kts 202°
2026-05-09 15:43 50.50780 3.78860 36996 ft 429 kts 205°
2026-05-09 15:43 50.46681 3.76019 37012 ft 431 kts 203°
2026-05-09 15:43 50.25415 3.60348 37010 ft 421 kts 206°
2026-05-09 15:44 50.05128 3.42544 37006 ft 419 kts 216°
2026-05-09 15:44 49.94810 3.34215 36997 ft 421 kts 200°
2026-05-09 15:44 49.90272 3.32097 36988 ft 421 kts 202°
2026-05-09 15:45 49.84819 3.28842 37001 ft 420 kts 204°
2026-05-09 15:45 49.79383 3.25540 37003 ft 420 kts 204°
2026-05-09 15:46 49.73944 3.22243 36997 ft 420 kts 204°
2026-05-09 15:46 49.68493 3.18995 36987 ft 420 kts 200°
2026-05-09 15:47 49.62704 3.17007 36998 ft 422 kts 194°
2026-05-09 15:47 49.51484 3.12245 37018 ft 417 kts 203°
2026-05-09 15:48 49.46370 3.08330 36955 ft 407 kts 221°
2026-05-09 15:48 49.41947 3.02937 36928 ft 410 kts 207°
2026-05-09 15:48 49.36126 2.98745 36938 ft 404 kts 222°
2026-05-09 15:49 49.28263 2.90129 36958 ft 411 kts 215°
2026-05-09 15:49 49.13838 2.76098 36985 ft 411 kts 207°
2026-05-09 15:50 49.11450 2.73779 36970 ft 405 kts 221°
2026-05-09 15:50 49.09240 2.71095 36969 ft 409 kts 217°
2026-05-09 15:50 49.02118 2.65552 36994 ft 412 kts 202°
2026-05-09 15:50 48.91195 2.60111 36990 ft 412 kts 205°
2026-05-09 15:51 48.70281 2.47656 37029 ft 418 kts 184°
2026-05-09 15:51 48.58868 2.45634 36895 ft 408 kts 207°
2026-05-09 15:51 48.53791 2.39131 36926 ft 401 kts 234°
2026-05-09 15:52 48.49612 2.33711 36895 ft 404 kts 203°
2026-05-09 15:52 48.46897 2.32531 36958 ft 409 kts 198°
2026-05-09 15:53 48.41529 2.29691 36986 ft 410 kts 203°